GW3114 Weather Reports


Display with metric or nautical units.
time (UTC)temp
F
wind
direction
speed
MPH
gust
MPH
rain 1hr
in
rain 24hr
in
rain mn
in
humidity
%
barometer
mb
20260906191233 83 248 2.0 3.0 0.00 0.00 0.00 55 1015.1
20260906190228 82 2 0.0 1.0 0.00 0.00 0.00 56 1015.1
20260906185226 82 282 1.0 1.0 0.00 0.00 0.00 56 1015.3
20260906184222 83 248 2.0 3.0 0.00 0.00 0.00 58 1015.3
20260906183220 82 265 5.0 7.0 0.00 0.00 0.00 59 1015.6
20260906182216 82 42 3.0 3.0 0.00 0.00 0.00 58 1015.5
20260906181213 80 358 3.0 4.0 0.00 0.00 0.00 59 1015.7
20260906180208 82 322 3.0 4.0 0.00 0.00 0.00 61 1015.6
20260906175208 81 221 1.0 1.0 0.00 0.00 0.00 62 1015.6
20260906174206 81 241 0.0 1.0 0.00 0.00 0.00 61 1015.8
20260906173203 81 283 4.0 6.0 0.00 0.00 0.00 61 1015.7
20260906172158 81 63 3.0 3.0 0.00 0.00 0.00 62 1015.8
20260906171153 81 250 1.0 1.0 0.00 0.00 0.00 65 1016.0
20260906170149 80 186 2.0 2.0 0.00 0.00 0.00 66 1016.0
20260906165146 80 126 2.0 2.0 0.00 0.00 0.00 66 1016.0
20260906164147 79 257 3.0 4.0 0.00 0.00 0.00 66 1016.2
20260906163144 80 229 3.0 4.0 0.00 0.00 0.00 67 1016.0
20260906162140 79 212 2.0 3.0 0.00 0.00 0.00 65 1016.1
20260906161140 78 22 5.0 10.0 0.00 0.00 0.00 68 1016.1
20260906160138 79 34 2.0 3.0 0.00 0.00 0.00 68 1016.0
20260906155137 78 302 3.0 3.0 0.00 0.00 0.00 69 1016.0
20260906154132 80 62 2.0 2.0 0.00 0.00 0.00 68 1016.2
20260906153132 79 4 5.0 7.0 0.00 0.00 0.00 71 1016.0
20260906152132 79 237 2.0 2.0 0.00 0.00 0.00 73 1016.2
20260906151129 78 234 1.0 2.0 0.00 0.00 0.00 75 1016.1
20260906150126 77 142 1.0 1.0 0.00 0.00 0.00 74 1016.1
20260906145125 76 279 1.0 2.0 0.00 0.00 0.00 75 1016.1
20260906144120 76 72 3.0 4.0 0.00 0.00 0.00 75 1015.9
20260906143117 76 166 2.0 2.0 0.00 0.00 0.00 75 1016.1
20260906142117 76 326 3.0 6.0 0.00 0.00 0.00 75 1016.1
20260906141112 77 210 0.0 0.0 0.00 0.00 0.00 75 1015.9
20260906140112 77 304 2.0 2.0 0.00 0.00 0.00 76 1016.0
20260906135110 75 221 2.0 3.0 0.00 0.00 0.00 79 1016.0
20260906134106 75 216 0.0 1.0 0.00 0.00 0.00 79 1016.0
20260906133102 73 263 3.0 4.0 0.00 0.00 0.00 79 1015.9
20260906132059 73 274 2.0 4.0 0.00 0.00 0.00 81 1015.8
20260906131056 72 310 0.0 0.0 0.00 0.00 0.00 83 1015.9
20260906130051 73 45 2.0 3.0 0.00 0.00 0.00 81 1015.8
20260906125048 72 6 0.0 1.0 0.00 0.00 0.00 83 1015.9
20260906124044 69 42 2.0 2.0 0.00 0.00 0.00 89 1015.9
20260906123045 66 269 0.0 0.0 0.00 0.00 0.00 99 1015.9
20260906122040 65 240 0.0 0.0 0.00 0.00 0.00 99 1015.5
20260906121038 64 311 0.0 1.0 0.00 0.00 0.00 99 1015.4
20260906120036 65 210 0.0 0.0 0.00 0.00 0.00 99 1015.6
20260906115031 62 211 0.0 0.0 0.00 0.00 0.00 99 1015.3
20260906114027 60 212 0.0 0.0 0.00 0.00 0.00 99 1015.3
20260906113027 60 228 0.0 0.0 0.00 0.00 0.00 99 1015.1
20260906112025 59 215 0.0 0.0 0.00 0.00 0.00 99 1015.1
20260906111019 59 218 0.0 0.0 0.00 0.00 0.00 99 1014.9
20260906110019 59 217 0.0 0.0 0.00 0.00 0.00 99 1014.8
20260906105016 59 215 0.0 0.0 0.00 0.00 0.00 99 1014.8
20260906104014 59 218 0.0 0.0 0.00 0.00 0.00 99 1014.6
20260906103014 59 212 0.0 0.0 0.00 0.00 0.00 99 1014.3
20260906102014 60 223 0.0 0.0 0.00 0.00 0.00 99 1014.1
20260906101010 60 219 0.0 0.0 0.00 0.00 0.00 99 1014.3
20260906100006 60 226 0.0 0.0 0.00 0.00 0.00 99 1014.0
20260906095002 60 222 0.0 0.0 0.00 0.00 0.00 99 1014.1
20260906093957 60 220 0.0 0.0 0.00 0.00 0.00 99 1013.9
20260906092953 60 221 0.0 0.0 0.00 0.00 0.00 99 1013.8
20260906091948 61 220 0.0 0.0 0.00 0.00 0.00 99 1013.9
20260906090946 61 214 0.0 0.0 0.00 0.00 0.00 99 1013.5
20260906085941 62 218 0.0 0.0 0.00 0.00 0.00 99 1013.5
20260906084939 62 221 0.0 0.0 0.00 0.00 0.00 99 1013.4
20260906083939 62 222 0.0 0.0 0.00 0.00 0.00 99 1013.3
20260906082940 62 226 0.0 0.0 0.00 0.00 0.00 99 1013.1
20260906081937 61 218 0.0 0.0 0.00 0.00 0.00 99 1013.3
20260906080934 61 219 0.0 0.0 0.00 0.00 0.00 99 1013.3
20260906075930 61 212 0.0 0.0 0.00 0.00 0.00 99 1013.1
20260906074926 61 214 0.0 0.0 0.00 0.00 0.00 99 1013.1
20260906073925 61 227 0.0 0.0 0.00 0.00 0.00 99 1013.3
20260906072922 62 224 0.0 0.0 0.00 0.00 0.00 99 1013.1
20260906071919 62 223 0.0 0.0 0.00 0.00 0.00 99 1013.0
20260906070917 63 219 0.0 0.0 0.00 0.00 0.00 99 1013.0
20260906065914 63 212 0.0 0.0 0.00 0.00 0.00 99 1012.9
20260906064910 63 219 0.0 0.0 0.00 0.00 0.00 99 1013.1
20260906063906 63 220 0.0 0.0 0.00 0.00 0.00 99 1013.0
20260906062902 63 220 0.0 0.0 0.00 0.00 0.00 99 1013.0
20260906061857 63 216 0.0 0.0 0.00 0.00 0.00 99 1013.0
20260906060853 63 220 0.0 0.0 0.00 0.00 0.00 99 1012.9
20260906055853 64 219 0.0 0.0 0.00 0.00 0.00 99 1012.7
20260906054849 64 220 0.0 0.0 0.00 0.00 0.00 99 1013.0
20260906053847 64 227 0.0 0.0 0.00 0.00 0.00 99 1012.8
20260906052843 64 219 0.0 0.0 0.00 0.00 0.00 99 1012.8
20260906051842 64 238 0.0 0.0 0.00 0.00 0.00 99 1013.0
20260906050838 65 222 0.0 0.0 0.00 0.00 0.00 99 1013.3
20260906045837 66 222 0.0 0.0 0.00 0.00 0.00 99 1013.2
20260906044834 66 220 0.0 0.0 0.00 0.00 0.00 99 1013.3
20260906043830 67 211 0.0 0.0 0.00 0.00 0.00 99 1013.2
20260906042826 67 237 0.0 0.0 0.00 0.00 0.00 99 1013.3
20260906041820 68 222 0.0 0.0 0.00 0.00 0.00 99 1013.4
20260906040817 68 208 0.0 0.0 0.00 0.00 0.00 99 1013.4
20260906035813 68 225 0.0 0.0 0.00 0.01 0.01 99 1013.3
20260906034809 69 223 0.0 0.0 0.00 0.01 0.01 99 1013.6
20260906033805 69 212 0.0 0.0 0.00 0.01 0.01 99 1013.4
20260906032801 70 238 0.0 0.0 0.00 0.01 0.01 99 1013.3
20260906031756 70 220 0.0 0.0 0.00 0.01 0.01 99 1013.5
20260906030752 70 220 0.0 0.0 0.00 0.01 0.01 99 1013.5
20260906025747 70 236 0.0 0.0 0.00 0.01 0.01 99 1013.3
20260906024746 70 267 0.0 0.0 0.00 0.01 0.01 99 1013.2
20260906023741 70 236 0.0 0.0 0.00 0.01 0.01 99 1013.0
20260906022737 70 232 0.0 0.0 0.00 0.01 0.01 99 1013.1
20260906021735 70 223 0.0 0.0 0.00 0.01 0.01 99 1013.1
20260906020734 70 221 0.0 0.0 0.00 0.01 0.01 99 1013.0
20260906015729 70 217 0.0 0.0 0.00 0.01 0.01 99 1013.0
20260906014728 70 220 0.0 0.0 0.00 0.01 0.01 99 1012.8
20260906013726 70 221 0.0 0.0 0.00 0.01 0.01 99 1012.8
20260906012721 71 238 0.0 0.0 0.00 0.01 0.01 99 1012.8
20260906011716 71 213 0.0 0.0 0.00 0.01 0.01 99 1012.5
20260906010712 71 202 0.0 0.0 0.00 0.01 0.01 99 1012.4
20260906005708 71 215 0.0 0.0 0.00 0.01 0.01 99 1012.0
20260906004707 71 218 0.0 0.0 0.00 0.01 0.01 99 1012.1
20260906003703 71 226 0.0 0.0 0.00 0.01 0.01 99 1012.0
20260906002659 71 213 0.0 0.0 0.00 0.01 0.01 99 1011.9
20260906001655 71 220 0.0 0.0 0.00 0.01 0.01 98 1011.9
20260906000651 72 229 0.0 0.0 0.00 0.01 0.01 98 1011.7
20260905235651 72 217 0.0 0.0 0.00 0.01 0.01 97 1011.6
20260905234647 73 223 0.0 0.0 0.00 0.01 0.01 96 1011.9
20260905233643 73 215 0.0 0.0 0.00 0.01 0.01 96 1011.6
20260905232644 74 222 0.0 0.0 0.00 0.01 0.01 95 1011.7
20260905231640 75 216 0.0 0.0 0.00 0.01 0.01 93 1011.7
20260905230638 76 225 0.0 0.0 0.00 0.01 0.01 92 1011.5
20260905225636 77 222 0.0 0.0 0.00 0.01 0.01 89 1011.5
20260905224636 77 235 0.0 0.0 0.00 0.01 0.01 88 1011.5
20260905223632 77 236 0.0 0.0 0.00 0.01 0.01 88 1011.4
20260905222630 78 224 0.0 0.0 0.00 0.01 0.01 90 1011.1
20260905221627 77 216 0.0 0.0 0.00 0.01 0.01 90 1011.2
20260905220624 77 228 0.0 0.0 0.00 0.01 0.01 90 1011.1
20260905215620 77 224 0.0 1.0 0.00 0.01 0.01 90 1011.3
20260905214617 77 264 1.0 1.0 0.00 0.01 0.01 90 1011.3
20260905213612 77 256 1.0 1.0 0.00 0.01 0.01 90 1011.3
20260905212608 77 222 0.0 0.0 0.00 0.01 0.01 91 1011.0
20260905211603 77 231 1.0 1.0 0.00 0.01 0.01 91 1010.8
20260905210600 77 235 0.0 0.0 0.05 0.01 0.01 90 1010.6
20260905205600 78 247 0.0 0.0 0.00 0.00 0.00 86 1010.4
20260905204600 79 313 1.0 2.0 0.00 0.00 0.00 82 1010.9
20260905203555 79 221 0.0 0.0 0.00 0.00 0.00 82 1011.1
20260905202552 79 229 2.0 2.0 0.00 0.00 0.00 81 1011.0
20260905201549 80 193 0.0 0.0 0.00 0.00 0.00 80 1010.7
20260905200544 80 240 1.0 1.0 0.00 0.00 0.00 80 1011.1
20260905195543 80 314 0.0 0.0 0.00 0.00 0.00 80 1011.1
20260905194538 80 229 0.0 1.0 0.00 0.00 0.00 80 1011.0
20260905193539 80 239 0.0 0.0 0.00 0.00 0.00 79 1011.2
20260905192535 82 276 2.0 3.0 0.00 0.00 0.00 77 1011.3